W5CMS-13 Weather Reports


time (UTC)temp
C
wind
direction
speed
KPH
gust
KPH
rain 1hr
cm
rain 24hr
cm
rain mn
cm
humidity
%
barometer
mb
20260906231016 37 0.0 0.0 0.00 0.00 0.00 47 1010.1
20260906230016 37 0.0 1.6 0.00 0.00 0.00 46 1010.1
20260906225016 37 0.0 6.4 0.00 0.00 0.00 47 1010.1
20260906224017 36 0.0 0.0 0.00 0.00 0.00 47 1010.2
20260906223016 37 203 1.6 11.3 0.00 0.00 0.00 47 1010.2
20260906222016 37 0.0 11.3 0.00 0.00 0.00 48 1010.3
20260906221016 37 225 1.6 12.9 0.00 0.00 0.00 47 1010.2
20260906220016 37 203 3.2 11.3 0.00 0.00 0.00 46 1010.2
20260906215016 37 180 1.6 20.9 0.00 0.00 0.00 47 1010.3
20260906214016 37 203 1.6 16.1 0.00 0.00 0.00 47 1010.3
20260906213017 37 180 1.6 14.5 0.00 0.00 0.00 46 1010.5
20260906212016 37 225 1.6 8.0 0.00 0.00 0.00 47 1010.6
20260906211016 37 158 1.6 14.5 0.00 0.00 0.00 46 1010.8
20260906210016 37 0.0 9.7 0.00 0.00 0.00 47 1011.0
20260906205016 37 0.0 9.7 0.00 0.00 0.00 46 1011.1
20260906204016 37 0.0 9.7 0.00 0.00 0.00 47 1011.3
20260906203016 37 0.0 9.7 0.00 0.00 0.00 47 1011.4
20260906202016 37 0.0 12.9 0.00 0.00 0.00 47 1011.5
20260906201016 37 90 1.6 11.3 0.00 0.00 0.00 48 1011.6
20260906200016 37 0.0 0.0 0.00 0.00 0.00 49 1011.6
20260906195016 36 0.0 6.4 0.00 0.00 0.00 49 1011.8
20260906194017 36 0.0 8.0 0.00 0.00 0.00 51 1011.9
20260906193017 36 158 1.6 11.3 0.00 0.00 0.00 50 1012.1
20260906192016 36 180 1.6 12.9 0.00 0.00 0.00 52 1012.1
20260906191016 36 0.0 20.9 0.00 0.00 0.00 52 1012.3
20260906190016 36 158 1.6 19.3 0.00 0.00 0.00 52 1012.4
20260906185016 36 68 1.6 12.9 0.00 0.00 0.00 53 1012.5
20260906184017 36 0.0 16.1 0.00 0.00 0.00 52 1012.7
20260906183016 35 180 1.6 9.7 0.00 0.00 0.00 54 1012.7
20260906182016 36 225 3.2 12.9 0.00 0.00 0.00 53 1012.8
20260906181016 35 180 1.6 11.3 0.00 0.00 0.00 55 1013.0
20260906180016 35 0.0 8.0 0.00 0.00 0.00 56 1013.1
20260906175017 35 0.0 6.4 0.00 0.00 0.00 55 1013.3
20260906174017 35 0.0 1.6 0.00 0.00 0.00 55 1013.5
20260906173016 35 0.0 8.0 0.00 0.00 0.00 56 1013.6
20260906172016 34 0.0 0.0 0.00 0.00 0.00 57 1013.8
20260906171017 34 0.0 0.0 0.00 0.00 0.00 58 1013.9
20260906170016 33 203 1.6 12.9 0.00 0.00 0.00 59 1013.9
20260906165016 33 0.0 0.0 0.00 0.00 0.00 61 1013.9
20260906164016 33 0.0 0.0 0.00 0.00 0.00 60 1014.1
20260906163016 33 0.0 12.9 0.00 0.00 0.00 62 1014.1
20260906162016 32 0.0 14.5 0.00 0.00 0.00 64 1014.0
20260906161016 32 0.0 0.0 0.00 0.00 0.00 64 1013.9
20260906160016 32 0.0 0.0 0.00 0.00 0.00 62 1013.9
20260906155016 32 0.0 1.6 0.00 0.00 0.00 67 1013.9
20260906154018 32 0.0 0.0 0.00 0.00 0.00 69 1013.8
20260906153017 31 0.0 0.0 0.00 0.00 0.00 71 1013.8
20260906152017 31 0.0 0.0 0.00 0.00 0.00 72 1013.7
20260906151016 31 0.0 0.0 0.00 0.00 0.00 73 1013.7
20260906150016 30 0.0 0.0 0.00 0.00 0.00 74 1013.6
20260906145016 30 0.0 0.0 0.00 0.00 0.00 76 1013.6
20260906144016 30 0.0 0.0 0.00 0.00 0.00 77 1013.5
20260906143016 29 0.0 0.0 0.00 0.00 0.00 79 1013.6
20260906142016 29 0.0 0.0 0.00 0.00 0.00 79 1013.7
20260906141016 28 0.0 0.0 0.00 0.00 0.00 80 1013.6
20260906140016 28 0.0 0.0 0.00 0.00 0.00 81 1013.5
20260906135016 28 0.0 0.0 0.00 0.00 0.00 83 1013.4
20260906134018 27 0.0 0.0 0.00 0.00 0.00 84 1013.4
20260906133016 27 0.0 0.0 0.00 0.00 0.00 85 1013.5
20260906132016 26 0.0 0.0 0.00 0.00 0.00 86 1013.5
20260906131016 26 0.0 0.0 0.00 0.00 0.00 88 1013.5
20260906130016 26 0.0 0.0 0.00 0.00 0.00 90 1013.4
20260906125016 25 0.0 0.0 0.00 0.00 0.00 91 1013.3
20260906124016 25 0.0 0.0 0.00 0.00 0.00 93 1013.2
20260906123016 24 0.0 0.0 0.00 0.00 0.00 93 1013.1
20260906122017 24 0.0 0.0 0.00 0.00 0.00 92 1013.0
20260906121018 24 0.0 0.0 0.00 0.00 0.00 92 1012.9
20260906120017 24 0.0 0.0 0.00 0.00 0.00 92 1012.8
20260906115016 24 0.0 0.0 0.00 0.00 0.00 91 1012.8
20260906114016 25 0.0 0.0 0.00 0.00 0.00 92 1012.8
20260906113017 24 0.0 0.0 0.00 0.00 0.00 91 1012.6
20260906112016 24 0.0 0.0 0.00 0.00 0.00 91 1012.5
20260906111016 25 0.0 0.0 0.00 0.00 0.00 90 1012.7
20260906110018 25 0.0 0.0 0.00 0.00 0.00 91 1012.6
20260906105016 25 0.0 0.0 0.00 0.00 0.00 91 1012.5
20260906104016 25 0.0 0.0 0.00 0.00 0.00 90 1012.4
20260906103016 25 0.0 0.0 0.00 0.00 0.00 90 1012.5
20260906102016 25 0.0 0.0 0.00 0.00 0.00 89 1012.3
20260906101016 25 0.0 0.0 0.00 0.00 0.00 88 1012.3
20260906100016 25 0.0 0.0 0.00 0.00 0.00 89 1012.3
20260906095016 25 0.0 0.0 0.00 0.00 0.00 88 1012.2
20260906094016 26 0.0 0.0 0.00 0.00 0.00 88 1012.1
20260906093016 26 0.0 0.0 0.00 0.00 0.00 87 1011.9
20260906092017 26 0.0 0.0 0.00 0.00 0.00 86 1011.9
20260906091016 26 0.0 0.0 0.00 0.00 0.00 85 1011.7
20260906090016 26 0.0 0.0 0.00 0.00 0.00 85 1011.7
20260906085018 26 0.0 0.0 0.00 0.00 0.00 84 1011.8
20260906084016 27 0.0 0.0 0.00 0.00 0.00 84 1011.6
20260906083016 27 0.0 0.0 0.00 0.00 0.00 84 1011.7
20260906082016 27 0.0 0.0 0.00 0.00 0.00 83 1011.7
20260906081016 27 0.0 0.0 0.00 0.00 0.00 83 1011.7
20260906080016 27 0.0 0.0 0.00 0.00 0.00 82 1011.8
20260906075016 27 0.0 0.0 0.00 0.00 0.00 82 1011.9
20260906074016 27 0.0 0.0 0.00 0.00 0.00 81 1011.9
20260906073016 27 0.0 0.0 0.00 0.00 0.00 80 1011.9
20260906072017 27 0.0 0.0 0.00 0.00 0.00 80 1011.7
20260906071016 27 0.0 0.0 0.00 0.00 0.00 80 1011.9
20260906070016 28 0.0 0.0 0.00 0.00 0.00 79 1012.1
20260906065016 28 0.0 0.0 0.00 0.00 0.00 79 1012.1
20260906064016 28 0.0 0.0 0.00 0.00 0.00 78 1012.1
20260906063016 28 0.0 0.0 0.00 0.00 0.00 77 1012.0
20260906062016 28 0.0 0.0 0.00 0.00 0.00 76 1012.0
20260906061016 28 0.0 0.0 0.00 0.00 0.00 75 1012.1
20260906060016 28 0.0 0.0 0.00 0.00 0.00 75 1012.2
20260906055016 28 0.0 0.0 0.00 0.00 0.00 74 1012.1
20260906054016 28 0.0 0.0 0.00 0.00 0.00 73 1012.2
20260906053016 28 0.0 0.0 0.00 0.00 0.00 72 1012.1
20260906052016 29 0.0 0.0 0.00 0.00 0.00 72 1011.9
20260906051017 29 0.0 0.0 0.00 0.00 0.00 71 1011.9
20260906050016 29 0.0 0.0 0.00 0.00 0.00 71 1012.0
20260906045016 29 0.0 0.0 0.00 0.00 0.00 71 1011.9
20260906044017 29 0.0 0.0 0.00 0.00 0.00 71 1012.0
20260906043016 30 0.0 0.0 0.00 0.00 0.00 71 1012.0
20260906042016 30 0.0 0.0 0.00 0.00 0.00 71 1012.1
20260906041016 30 0.0 0.0 0.00 0.00 0.00 71 1012.0
20260906040016 30 0.0 0.0 0.00 0.00 0.00 70 1012.0
20260906035016 30 0.0 0.0 0.00 0.00 0.00 70 1012.0
20260906034016 30 0.0 0.0 0.00 0.00 0.00 70 1012.0
20260906033017 30 0.0 1.6 0.00 0.00 0.00 70 1011.9
20260906032020 30 0.0 0.0 0.00 0.00 0.00 69 1011.9
20260906031018 30 0.0 0.0 0.00 0.00 0.00 68 1012.0
20260906030017 31 0.0 1.6 0.00 0.00 0.00 67 1011.9
20260906025016 31 0.0 0.0 0.00 0.00 0.00 67 1011.9
20260906024016 31 0.0 0.0 0.00 0.00 0.00 67 1011.7
20260906023016 31 0.0 0.0 0.00 0.00 0.00 66 1011.5
20260906022016 31 0.0 0.0 0.00 0.00 0.00 66 1011.4
20260906021016 31 0.0 0.0 0.00 0.00 0.00 65 1011.2
20260906020016 31 0.0 0.0 0.00 0.00 0.00 65 1011.0
20260906015017 31 0.0 1.6 0.00 0.00 0.00 65 1011.0
20260906014016 31 0.0 0.0 0.00 0.00 0.00 64 1011.0
20260906013017 31 180 1.6 17.7 0.00 0.00 0.00 63 1010.7
20260906012017 32 203 4.8 19.3 0.00 0.00 0.00 61 1010.6
20260906011018 33 180 1.6 24.1 0.00 0.00 0.00 58 1010.4
20260906010017 33 180 1.6 16.1 0.00 0.00 0.00 57 1010.3
20260906005016 33 0.0 0.0 0.00 0.00 0.00 56 1010.1
20260906004016 35 180 3.2 12.9 0.00 0.00 0.00 54 1010.2
20260906003016 35 0.0 0.0 0.00 0.00 0.00 51 1010.0
20260906002016 35 0.0 1.6 0.00 0.00 0.00 50 1010.1
20260906001017 36 0.0 1.6 0.00 0.00 0.00 49 1010.1
20260906000018 36 0.0 0.0 0.00 0.00 0.00 48 1010.0
20260905235016 36 0.0 1.6 0.00 0.00 0.00 47 1009.9
20260905234017 36 0.0 0.0 0.00 0.00 0.00 46 1009.8
20260905233016 37 0.0 0.0 0.00 0.00 0.00 45 1010.0
20260905232017 37 0.0 0.0 0.00 0.00 0.00 45 1009.9